Time,TemperatureF,DewpointF,PressureIn,WindDirection,WindDirectionDegrees,WindSpeedMPH,WindSpeedGustMPH,Humidity,HourlyPrecipIn,Conditions,Clouds,dailyrainin,SoftwareType,DateUTC
2013-02-18 00:00:00,16.5,2.7,29.75,WNW,300,7.0,7.0,54,0.00,,,0.00,Wunderground v.1.15,2013-02-18 05:00:00,
2013-02-18 00:01:00,16.5,2.7,29.75,SW,226,7.0,9.0,54,0.00,,,0.00,Wunderground v.1.15,2013-02-18 05:01:00,
2013-02-18 00:03:00,16.4,3.0,29.75,WNW,287,8.0,13.0,55,0.00,,,0.00,Wunderground v.1.15,2013-02-18 05:03:00,
2013-02-18 00:05:00,16.4,3.0,29.75,NW,314,8.0,17.0,55,0.00,,,0.00,Wunderground v.1.15,2013-02-18 05:05:00,
2013-02-18 00:10:00,16.3,2.9,29.75,NNW,347,6.0,17.0,55,0.00,,,0.00,Wunderground v.1.15,2013-02-18 05:10:00,
2013-02-18 00:16:00,16.2,2.8,29.75,NW,319,7.0,17.0,55,0.00,,,0.00,Wunderground v.1.15,2013-02-18 05:16:00,
2013-02-18 00:21:00,16.1,3.1,29.76,West,275,7.0,17.0,56,0.00,,,0.00,Wunderground v.1.15,2013-02-18 05:21:00,
2013-02-18 00:27:00,16.0,3.0,29.76,WNW,295,6.0,17.0,56,0.00,,,0.00,Wunderground v.1.15,2013-02-18 05:27:00,
2013-02-18 00:32:00,16.0,3.0,29.76,NNE,23,6.0,17.0,56,0.00,,,0.00,Wunderground v.1.15,2013-02-18 05:32:00,
2013-02-18 00:38:00,16.0,3.0,29.76,NNW,333,7.0,17.0,56,0.00,,,0.00,Wunderground v.1.15,2013-02-18 05:38:00,
2013-02-18 00:44:00,16.0,3.0,29.77,NNE,22,7.0,17.0,56,0.00,,,0.00,Wunderground v.1.15,2013-02-18 05:44:00,
2013-02-18 00:49:00,16.0,3.0,29.77,NNE,17,7.0,17.0,56,0.00,,,0.00,Wunderground v.1.15,2013-02-18 05:49:00,
2013-02-18 00:55:00,16.0,3.0,29.77,NNE,27,7.0,20.0,56,0.00,,,0.00,Wunderground v.1.15,2013-02-18 05:55:00,
2013-02-18 01:00:00,16.0,3.0,29.77,SSW,211,7.0,7.0,56,0.00,,,0.00,Wunderground v.1.15,2013-02-18 06:00:00,
2013-02-18 01:06:00,16.0,3.0,29.78,West,272,7.0,18.0,56,0.00,,,0.00,Wunderground v.1.15,2013-02-18 06:06:00,
2013-02-18 01:12:00,15.9,3.0,29.78,NW,319,8.0,17.0,56,0.00,,,0.00,Wunderground v.1.15,2013-02-18 06:12:00,
2013-02-18 01:18:00,15.9,3.0,29.78,North,3,6.0,17.0,56,0.00,,,0.00,Wunderground v.1.15,2013-02-18 06:18:00,
2013-02-18 01:23:00,16.0,3.0,29.79,NNW,334,6.0,17.0,56,0.00,,,0.00,Wunderground v.1.15,2013-02-18 06:23:00,
2013-02-18 01:28:00,16.0,3.0,29.79,WNW,299,6.0,17.0,56,0.00,,,0.00,Wunderground v.1.15,2013-02-18 06:28:00,
2013-02-18 01:33:00,16.0,2.7,29.79,WNW,290,6.0,17.0,55,0.00,,,0.00,Wunderground v.1.15,2013-02-18 06:33:00,
2013-02-18 01:38:00,16.0,3.0,29.79,WNW,301,7.0,17.0,56,0.00,,,0.00,Wunderground v.1.15,2013-02-18 06:38:00,
2013-02-18 01:44:00,16.1,2.7,29.79,WNW,298,8.0,17.0,55,0.00,,,0.00,Wunderground v.1.15,2013-02-18 06:44:00,
2013-02-18 01:49:00,16.1,2.7,29.79,NW,305,7.0,17.0,55,0.00,,,0.00,Wunderground v.1.15,2013-02-18 06:49:00,
2013-02-18 01:55:00,16.0,2.7,29.79,SSW,200,5.0,17.0,55,0.00,,,0.00,Wunderground v.1.15,2013-02-18 06:55:00,
2013-02-18 02:01:00,16.1,3.1,29.79,West,261,6.0,17.0,56,0.00,,,0.00,Wunderground v.1.15,2013-02-18 07:01:00,
2013-02-18 02:06:00,16.1,2.7,29.79,SW,236,7.0,17.0,55,0.00,,,0.00,Wunderground v.1.15,2013-02-18 07:06:00,
2013-02-18 02:11:00,16.1,2.7,29.80,WSW,255,6.0,17.0,55,0.00,,,0.00,Wunderground v.1.15,2013-02-18 07:11:00,
2013-02-18 02:17:00,16.1,2.7,29.81,West,273,6.0,17.0,55,0.00,,,0.00,Wunderground v.1.15,2013-02-18 07:17:00,
2013-02-18 02:23:00,16.0,2.7,29.80,WNW,298,6.0,17.0,55,0.00,,,0.00,Wunderground v.1.15,2013-02-18 07:23:00,
2013-02-18 02:28:00,16.0,2.7,29.80,SW,226,7.0,17.0,55,0.00,,,0.00,Wunderground v.1.15,2013-02-18 07:28:00,
2013-02-18 02:34:00,16.0,2.7,29.81,NNW,332,6.0,17.0,55,0.00,,,0.00,Wunderground v.1.15,2013-02-18 07:34:00,
2013-02-18 02:39:00,15.9,2.6,29.81,WNW,303,6.0,17.0,55,0.00,,,0.00,Wunderground v.1.15,2013-02-18 07:39:00,
2013-02-18 02:45:00,15.9,2.6,29.81,WNW,295,6.0,17.0,55,0.00,,,0.00,Wunderground v.1.15,2013-02-18 07:45:00,
2013-02-18 02:50:00,15.8,2.5,29.81,NNE,16,6.0,6.0,55,0.00,,,0.00,Wunderground v.1.15,2013-02-18 07:50:00,
2013-02-18 02:55:00,15.8,2.5,29.81,West,270,7.0,17.0,55,0.00,,,0.00,Wunderground v.1.15,2013-02-18 07:55:00,
2013-02-18 03:00:00,15.8,2.5,29.81,SE,143,7.0,7.0,55,0.00,,,0.00,Wunderground v.1.15,2013-02-18 08:00:00,
2013-02-18 03:05:00,15.9,2.6,29.81,WNW,297,7.0,19.0,55,0.00,,,0.00,Wunderground v.1.15,2013-02-18 08:05:00,
2013-02-18 03:10:00,15.8,2.5,29.81,WSW,238,7.0,17.0,55,0.00,,,0.00,Wunderground v.1.15,2013-02-18 08:10:00,
2013-02-18 03:16:00,15.7,2.4,29.82,NNE,13,6.0,17.0,55,0.00,,,0.00,Wunderground v.1.15,2013-02-18 08:16:00,
2013-02-18 03:21:00,15.8,2.1,29.82,West,260,7.0,17.0,54,0.00,,,0.00,Wunderground v.1.15,2013-02-18 08:21:00,
2013-02-18 03:27:00,15.8,2.1,29.82,South,178,7.0,17.0,54,0.00,,,0.00,Wunderground v.1.15,2013-02-18 08:27:00,
2013-02-18 03:32:00,15.7,2.0,29.82,West,270,6.0,17.0,54,0.00,,,0.00,Wunderground v.1.15,2013-02-18 08:32:00,
2013-02-18 03:37:00,15.7,2.0,29.82,NW,322,6.0,17.0,54,0.00,,,0.00,Wunderground v.1.15,2013-02-18 08:37:00,
2013-02-18 03:42:00,15.7,2.0,29.82,North,5,7.0,17.0,54,0.00,,,0.00,Wunderground v.1.15,2013-02-18 08:42:00,
2013-02-18 03:47:00,15.8,2.1,29.82,NW,326,7.0,17.0,54,0.00,,,0.00,Wunderground v.1.15,2013-02-18 08:47:00,
2013-02-18 03:53:00,15.8,2.1,29.83,NNE,23,7.0,17.0,54,0.00,,,0.00,Wunderground v.1.15,2013-02-18 08:53:00,
2013-02-18 03:58:00,15.8,2.1,29.84,NW,310,6.0,17.0,54,0.00,,,0.00,Wunderground v.1.15,2013-02-18 08:58:00,
2013-02-18 04:03:00,15.8,2.1,29.84,WNW,285,6.0,17.0,54,0.00,,,0.00,Wunderground v.1.15,2013-02-18 09:03:00,
2013-02-18 04:09:00,15.8,2.1,29.84,NNW,334,7.0,17.0,54,0.00,,,0.00,Wunderground v.1.15,2013-02-18 09:09:00,
2013-02-18 04:14:00,15.9,2.2,29.84,WNW,283,7.0,17.0,54,0.00,,,0.00,Wunderground v.1.15,2013-02-18 09:14:00,
2013-02-18 04:20:00,15.9,2.2,29.85,West,278,7.0,7.0,54,0.00,,,0.00,Wunderground v.1.15,2013-02-18 09:20:00,
2013-02-18 04:26:00,15.9,2.2,29.86,West,260,6.0,17.0,54,0.00,,,0.00,Wunderground v.1.15,2013-02-18 09:26:00,
2013-02-18 04:31:00,15.9,1.8,29.85,East,83,6.0,17.0,53,0.00,,,0.00,Wunderground v.1.15,2013-02-18 09:31:00,
2013-02-18 04:37:00,15.9,2.2,29.86,WSW,245,6.0,17.0,54,0.00,,,0.00,Wunderground v.1.15,2013-02-18 09:37:00,
2013-02-18 04:43:00,16.0,2.3,29.86,West,266,6.0,17.0,54,0.00,,,0.00,Wunderground v.1.15,2013-02-18 09:43:00,
2013-02-18 04:49:00,16.0,2.3,29.87,West,263,7.0,17.0,54,0.00,,,0.00,Wunderground v.1.15,2013-02-18 09:49:00,
2013-02-18 04:54:00,16.0,2.3,29.88,North,354,7.0,17.0,54,0.00,,,0.00,Wunderground v.1.15,2013-02-18 09:54:00,
2013-02-18 05:00:00,16.0,2.3,29.88,WNW,291,7.0,7.0,54,0.00,,,0.00,Wunderground v.1.15,2013-02-18 10:00:00,
2013-02-18 05:06:00,16.0,2.3,29.88,NW,305,6.0,17.0,54,0.00,,,0.00,Wunderground v.1.15,2013-02-18 10:06:00,
2013-02-18 05:12:00,16.0,2.3,29.89,NW,311,6.0,17.0,54,0.00,,,0.00,Wunderground v.1.15,2013-02-18 10:12:00,
2013-02-18 05:18:00,15.9,2.2,29.89,WNW,291,6.0,17.0,54,0.00,,,0.00,Wunderground v.1.15,2013-02-18 10:18:00,
2013-02-18 05:23:00,16.0,2.7,29.90,West,270,5.0,17.0,55,0.00,,,0.00,Wunderground v.1.15,2013-02-18 10:23:00,
2013-02-18 05:28:00,15.9,2.6,29.90,SW,236,6.0,17.0,55,0.00,,,0.00,Wunderground v.1.15,2013-02-18 10:28:00,
2013-02-18 05:34:00,15.9,2.6,29.89,NW,314,5.0,17.0,55,0.00,,,0.00,Wunderground v.1.15,2013-02-18 10:34:00,
2013-02-18 05:40:00,15.9,2.6,29.90,North,6,6.0,6.0,55,0.00,,,0.00,Wunderground v.1.15,2013-02-18 10:40:00,
2013-02-18 05:46:00,15.8,2.5,29.91,NW,326,5.0,17.0,55,0.00,,,0.00,Wunderground v.1.15,2013-02-18 10:46:00,
2013-02-18 05:51:00,15.9,2.2,29.91,ENE,63,6.0,17.0,54,0.00,,,0.00,Wunderground v.1.15,2013-02-18 10:51:00,
2013-02-18 05:56:00,15.8,2.5,29.91,West,273,6.0,17.0,55,0.00,,,0.00,Wunderground v.1.15,2013-02-18 10:56:00,
2013-02-18 06:02:00,15.8,2.5,29.91,NNE,13,5.0,17.0,55,0.00,,,0.00,Wunderground v.1.15,2013-02-18 11:02:00,
2013-02-18 06:07:00,15.7,2.4,29.92,ENE,74,6.0,17.0,55,0.00,,,0.00,Wunderground v.1.15,2013-02-18 11:07:00,
2013-02-18 06:13:00,15.6,2.3,29.92,NNW,328,5.0,17.0,55,0.00,,,0.00,Wunderground v.1.15,2013-02-18 11:13:00,
2013-02-18 06:19:00,15.5,2.2,29.93,WNW,291,5.0,17.0,55,0.00,,,0.00,Wunderground v.1.15,2013-02-18 11:19:00,
2013-02-18 06:25:00,15.6,2.3,29.93,WSW,252,5.0,17.0,55,0.00,,,0.00,Wunderground v.1.15,2013-02-18 11:25:00,
2013-02-18 06:30:00,15.6,2.3,29.94,West,276,6.0,17.0,55,0.00,,,0.00,Wunderground v.1.15,2013-02-18 11:30:00,
2013-02-18 06:36:00,15.6,2.3,29.94,NE,51,5.0,17.0,55,0.00,,,0.00,Wunderground v.1.15,2013-02-18 11:36:00,
2013-02-18 06:42:00,15.5,2.2,29.94,WNW,283,5.0,17.0,55,0.00,,,0.00,Wunderground v.1.15,2013-02-18 11:42:00,
2013-02-18 06:47:00,15.5,2.2,29.94,NNW,328,5.0,17.0,55,0.00,,,0.00,Wunderground v.1.15,2013-02-18 11:47:00,
2013-02-18 06:53:00,15.5,2.2,29.95,North,7,5.0,17.0,55,0.00,,,0.00,Wunderground v.1.15,2013-02-18 11:53:00,
2013-02-18 06:58:00,15.4,2.5,29.95,WSW,250,4.0,17.0,56,0.00,,,0.00,Wunderground v.1.15,2013-02-18 11:58:00,
2013-02-18 07:03:00,15.5,2.2,29.95,West,280,6.0,17.0,55,0.00,,,0.00,Wunderground v.1.15,2013-02-18 12:03:00,
2013-02-18 07:09:00,15.6,2.3,29.96,NNW,331,7.0,17.0,55,0.00,,,0.00,Wunderground v.1.15,2013-02-18 12:09:00,
2013-02-18 07:14:00,15.6,2.3,29.97,WNW,300,6.0,17.0,55,0.00,,,0.00,Wunderground v.1.15,2013-02-18 12:14:00,
2013-02-18 07:19:00,15.8,2.5,29.97,WSW,245,6.0,17.0,55,0.00,,,0.00,Wunderground v.1.15,2013-02-18 12:19:00,
2013-02-18 07:25:00,16.2,2.4,29.98,NNW,340,5.0,17.0,54,0.00,,,0.00,Wunderground v.1.15,2013-02-18 12:25:00,
2013-02-18 07:30:00,16.6,2.8,29.98,NNW,340,4.0,4.0,54,0.00,,,0.00,Wunderground v.1.15,2013-02-18 12:30:00,
2013-02-18 07:36:00,16.9,2.7,29.98,NW,314,5.0,17.0,53,0.00,,,0.00,Wunderground v.1.15,2013-02-18 12:36:00,
2013-02-18 07:42:00,17.4,2.8,29.99,NNW,340,6.0,17.0,52,0.00,,,0.00,Wunderground v.1.15,2013-02-18 12:42:00,
2013-02-18 07:48:00,17.7,3.0,29.99,West,276,6.0,17.0,52,0.00,,,0.00,Wunderground v.1.15,2013-02-18 12:48:00,
2013-02-18 07:53:00,17.9,2.8,30.00,NW,312,6.0,17.0,51,0.00,,,0.00,Wunderground v.1.15,2013-02-18 12:53:00,
2013-02-18 07:58:00,18.2,3.1,30.00,North,11,6.0,17.0,51,0.00,,,0.00,Wunderground v.1.15,2013-02-18 12:58:00,
2013-02-18 08:04:00,18.3,2.7,30.00,WSW,257,6.0,17.0,50,0.00,,,0.00,Wunderground v.1.15,2013-02-18 13:04:00,
2013-02-18 08:09:00,18.5,2.9,30.00,SSW,203,6.0,17.0,50,0.00,,,0.00,Wunderground v.1.15,2013-02-18 13:09:00,
2013-02-18 08:15:00,18.6,2.6,30.01,North,4,7.0,17.0,49,0.00,,,0.00,Wunderground v.1.15,2013-02-18 13:15:00,
2013-02-18 08:20:00,19.0,3.0,30.01,ENE,75,6.0,6.0,49,0.00,,,0.00,Wunderground v.1.15,2013-02-18 13:20:00,
2013-02-18 08:26:00,19.2,3.1,30.01,West,266,5.0,17.0,49,0.00,,,0.00,Wunderground v.1.15,2013-02-18 13:26:00,
2013-02-18 08:32:00,19.4,3.3,30.02,West,264,6.0,17.0,49,0.00,,,0.00,Wunderground v.1.15,2013-02-18 13:32:00,
2013-02-18 08:38:00,19.6,3.1,30.02,WSW,238,6.0,17.0,48,0.00,,,0.00,Wunderground v.1.15,2013-02-18 13:38:00,
2013-02-18 08:43:00,20.0,3.0,30.02,NNW,333,5.0,17.0,47,0.00,,,0.00,Wunderground v.1.15,2013-02-18 13:43:00,
2013-02-18 08:49:00,20.0,3.0,30.02,West,264,5.0,17.0,47,0.00,,,0.00,Wunderground v.1.15,2013-02-18 13:49:00,
2013-02-18 08:54:00,20.2,3.2,30.02,North,6,7.0,17.0,47,0.00,,,0.00,Wunderground v.1.15,2013-02-18 13:54:00,
2013-02-18 08:59:00,20.6,3.5,30.02,NNE,20,6.0,17.0,47,0.00,,,0.00,Wunderground v.1.15,2013-02-18 13:59:00,
2013-02-18 09:05:00,20.8,3.7,30.02,NW,304,5.0,17.0,47,0.00,,,0.00,Wunderground v.1.15,2013-02-18 14:05:00,
2013-02-18 09:10:00,21.1,3.5,30.02,WSW,249,6.0,6.0,46,0.00,,,0.00,Wunderground v.1.15,2013-02-18 14:10:00,
2013-02-18 09:15:00,21.1,3.5,30.03,NNW,345,7.0,17.0,46,0.00,,,0.00,Wunderground v.1.15,2013-02-18 14:15:00,
2013-02-18 09:20:00,21.2,3.6,30.02,WNW,294,7.0,7.0,46,0.00,,,0.00,Wunderground v.1.15,2013-02-18 14:20:00,
2013-02-18 09:25:00,21.7,3.6,30.02,NNW,328,5.0,17.0,45,0.00,,,0.00,Wunderground v.1.15,2013-02-18 14:25:00,
2013-02-18 09:31:00,22.1,3.5,30.03,NNE,33,5.0,6.0,44,0.00,,,0.00,Wunderground v.1.15,2013-02-18 14:31:00,
2013-02-18 09:36:00,22.1,3.5,30.03,NW,322,6.0,17.0,44,0.00,,,0.00,Wunderground v.1.15,2013-02-18 14:36:00,
2013-02-18 09:41:00,22.4,4.2,30.03,NNW,340,7.0,17.0,45,0.00,,,0.00,Wunderground v.1.15,2013-02-18 14:41:00,
2013-02-18 09:47:00,23.1,4.4,30.03,NNW,333,6.0,17.0,44,0.00,,,0.00,Wunderground v.1.15,2013-02-18 14:47:00,
2013-02-18 09:53:00,23.9,4.1,30.03,WNW,291,4.0,17.0,42,0.00,,,0.00,Wunderground v.1.15,2013-02-18 14:53:00,
2013-02-18 09:59:00,23.9,3.6,30.03,WSW,240,5.0,17.0,41,0.00,,,0.00,Wunderground v.1.15,2013-02-18 14:59:00,
2013-02-18 10:04:00,24.0,4.2,30.03,SE,131,5.0,17.0,42,0.00,,,0.00,Wunderground v.1.15,2013-02-18 15:04:00,
2013-02-18 10:10:00,24.4,4.0,30.03,WNW,285,5.0,5.0,41,0.00,,,0.00,Wunderground v.1.15,2013-02-18 15:10:00,
2013-02-18 10:15:00,24.7,3.8,30.04,NNW,340,6.0,17.0,40,0.00,,,0.00,Wunderground v.1.15,2013-02-18 15:15:00,
2013-02-18 10:20:00,24.8,3.9,30.04,NNE,12,6.0,6.0,40,0.00,,,0.00,Wunderground v.1.15,2013-02-18 15:20:00,
2013-02-18 10:26:00,25.3,4.3,30.03,NW,313,6.0,17.0,40,0.00,,,0.00,Wunderground v.1.15,2013-02-18 15:26:00,
2013-02-18 10:31:00,25.8,4.2,30.04,WSW,253,5.0,17.0,39,0.00,,,0.00,Wunderground v.1.15,2013-02-18 15:31:00,
2013-02-18 10:36:00,26.2,4.0,30.05,NNW,338,5.0,17.0,38,0.00,,,0.00,Wunderground v.1.15,2013-02-18 15:36:00,
2013-02-18 10:41:00,26.4,3.0,30.05,WNW,292,5.0,17.0,36,0.00,,,0.00,Wunderground v.1.15,2013-02-18 15:41:00,
2013-02-18 10:47:00,26.2,2.8,30.05,WSW,252,7.0,17.0,36,0.00,,,0.00,Wunderground v.1.15,2013-02-18 15:47:00,
2013-02-18 10:52:00,26.4,3.0,30.05,East,95,7.0,17.0,36,0.00,,,0.00,Wunderground v.1.15,2013-02-18 15:52:00,
2013-02-18 10:58:00,26.9,3.5,30.05,NW,305,6.0,17.0,36,0.00,,,0.00,Wunderground v.1.15,2013-02-18 15:58:00,
2013-02-18 11:03:00,27.0,2.9,30.05,NNE,23,6.0,17.0,35,0.00,,,0.00,Wunderground v.1.15,2013-02-18 16:03:00,
2013-02-18 11:09:00,27.3,2.6,30.05,WSW,239,6.0,17.0,34,0.00,,,0.00,Wunderground v.1.15,2013-02-18 16:09:00,
2013-02-18 11:15:00,27.4,2.7,30.05,West,270,8.0,9.0,34,0.00,,,0.00,Wunderground v.1.15,2013-02-18 16:15:00,
2013-02-18 11:20:00,27.6,2.2,30.05,NNW,342,8.0,8.0,33,0.00,,,0.00,Wunderground v.1.15,2013-02-18 16:20:00,
2013-02-18 11:26:00,28.1,3.3,30.05,West,280,7.0,9.0,34,0.00,,,0.00,Wunderground v.1.15,2013-02-18 16:26:00,
2013-02-18 11:31:00,28.4,2.2,30.06,West,267,6.0,8.0,32,0.00,,,0.00,Wunderground v.1.15,2013-02-18 16:31:00,
2013-02-18 11:36:00,28.1,2.0,30.07,WSW,257,6.0,13.0,32,0.00,,,0.00,Wunderground v.1.15,2013-02-18 16:36:00,
2013-02-18 11:41:00,28.1,2.0,30.06,West,280,7.0,9.0,32,0.00,,,0.00,Wunderground v.1.15,2013-02-18 16:41:00,
2013-02-18 11:46:00,28.3,2.2,30.06,NW,316,6.0,9.0,32,0.00,,,0.00,Wunderground v.1.15,2013-02-18 16:46:00,
2013-02-18 11:52:00,28.5,1.6,30.06,West,274,5.0,6.0,31,0.00,,,0.00,Wunderground v.1.15,2013-02-18 16:52:00,
2013-02-18 11:57:00,28.4,0.9,30.07,WNW,284,6.0,19.0,30,0.00,,,0.00,Wunderground v.1.15,2013-02-18 16:57:00,
2013-02-18 12:03:00,28.1,1.3,30.07,West,278,8.0,15.0,31,0.00,,,0.00,Wunderground v.1.15,2013-02-18 17:03:00,
2013-02-18 12:08:00,28.3,0.8,30.07,North,351,7.0,15.0,30,0.00,,,0.00,Wunderground v.1.15,2013-02-18 17:08:00,
2013-02-18 12:14:00,28.5,0.2,30.07,WSW,246,8.0,15.0,29,0.00,,,0.00,Wunderground v.1.15,2013-02-18 17:14:00,
2013-02-18 12:20:00,28.9,1.3,30.07,NNW,345,8.0,15.0,30,0.00,,,0.00,Wunderground v.1.15,2013-02-18 17:20:00,
2013-02-18 12:25:00,29.0,0.7,30.07,WSW,256,7.0,15.0,29,0.00,,,0.00,Wunderground v.1.15,2013-02-18 17:25:00,
2013-02-18 12:30:00,29.4,2.4,30.07,WSW,243,6.0,6.0,31,0.00,,,0.00,Wunderground v.1.15,2013-02-18 17:30:00,
2013-02-18 12:35:00,29.7,2.0,30.07,West,274,6.0,15.0,30,0.00,,,0.00,Wunderground v.1.15,2013-02-18 17:35:00,
2013-02-18 12:41:00,29.7,1.3,30.07,West,264,6.0,15.0,29,0.00,,,0.00,Wunderground v.1.15,2013-02-18 17:41:00,
2013-02-18 12:46:00,30.1,1.6,30.07,WNW,290,5.0,15.0,29,0.00,,,0.00,Wunderground v.1.15,2013-02-18 17:46:00,
2013-02-18 12:52:00,30.4,1.9,30.07,WSW,239,6.0,15.0,29,0.00,,,0.00,Wunderground v.1.15,2013-02-18 17:52:00,
2013-02-18 12:58:00,30.6,1.3,30.07,SW,218,6.0,15.0,28,0.00,,,0.00,Wunderground v.1.15,2013-02-18 17:58:00,
2013-02-18 13:04:00,30.9,1.6,30.07,North,11,6.0,15.0,28,0.00,,,0.00,Wunderground v.1.15,2013-02-18 18:04:00,
2013-02-18 13:09:00,30.4,1.1,30.07,WNW,291,6.0,16.0,28,0.00,,,0.00,Wunderground v.1.15,2013-02-18 18:09:00,
2013-02-18 13:15:00,30.6,1.3,30.07,NNW,330,6.0,15.0,28,0.00,,,0.00,Wunderground v.1.15,2013-02-18 18:15:00,
2013-02-18 13:20:00,30.2,0.9,30.07,WNW,297,6.0,6.0,28,0.00,,,0.00,Wunderground v.1.15,2013-02-18 18:20:00,
2013-02-18 13:26:00,30.3,1.0,30.07,North,5,7.0,19.0,28,0.00,,,0.00,Wunderground v.1.15,2013-02-18 18:26:00,
2013-02-18 13:31:00,30.4,1.9,30.07,WNW,290,7.0,15.0,29,0.00,,,0.00,Wunderground v.1.15,2013-02-18 18:31:00,
2013-02-18 13:36:00,30.7,2.9,30.06,West,273,7.0,15.0,30,0.00,,,0.00,Wunderground v.1.15,2013-02-18 18:36:00,
2013-02-18 13:42:00,31.0,3.1,30.06,West,269,6.0,15.0,30,0.00,,,0.00,Wunderground v.1.15,2013-02-18 18:42:00,
2013-02-18 13:48:00,31.1,1.7,30.07,ESE,104,6.0,15.0,28,0.00,,,0.00,Wunderground v.1.15,2013-02-18 18:48:00,
2013-02-18 13:53:00,31.4,2.8,30.07,NNW,339,6.0,15.0,29,0.00,,,0.00,Wunderground v.1.15,2013-02-18 18:53:00,
2013-02-18 13:59:00,31.6,2.9,30.07,WNW,291,6.0,15.0,29,0.00,,,0.00,Wunderground v.1.15,2013-02-18 18:59:00,
2013-02-18 14:05:00,31.6,2.9,30.07,NW,304,6.0,15.0,29,0.00,,,0.00,Wunderground v.1.15,2013-02-18 19:05:00,
2013-02-18 14:11:00,32.0,3.3,30.07,WSW,252,5.0,6.0,29,0.00,,,0.00,Wunderground v.1.15,2013-02-18 19:11:00,
2013-02-18 14:16:00,32.3,2.8,30.07,West,281,5.0,15.0,28,0.00,,,0.00,Wunderground v.1.15,2013-02-18 19:16:00,
2013-02-18 14:22:00,32.8,4.0,30.07,NNW,338,5.0,15.0,29,0.00,,,0.00,Wunderground v.1.15,2013-02-18 19:22:00,
2013-02-18 14:28:00,32.6,1.4,30.07,SW,234,5.0,15.0,26,0.00,,,0.00,Wunderground v.1.15,2013-02-18 19:28:00,
2013-02-18 14:33:00,32.7,2.3,30.07,West,259,5.0,15.0,27,0.00,,,0.00,Wunderground v.1.15,2013-02-18 19:33:00,
2013-02-18 14:39:00,33.1,3.5,30.07,WNW,284,4.0,15.0,28,0.00,,,0.00,Wunderground v.1.15,2013-02-18 19:39:00,
2013-02-18 14:45:00,33.0,3.4,30.07,WSW,256,5.0,15.0,28,0.00,,,0.00,Wunderground v.1.15,2013-02-18 19:45:00,
2013-02-18 14:51:00,32.8,3.2,30.07,WSW,237,6.0,15.0,28,0.00,,,0.00,Wunderground v.1.15,2013-02-18 19:51:00,
2013-02-18 14:56:00,32.7,2.3,30.07,WNW,301,6.0,15.0,27,0.00,,,0.00,Wunderground v.1.15,2013-02-18 19:56:00,
2013-02-18 15:01:00,32.8,3.2,30.07,WNW,297,6.0,15.0,28,0.00,,,0.00,Wunderground v.1.15,2013-02-18 20:01:00,
2013-02-18 15:07:00,32.9,2.5,30.07,West,276,6.0,16.0,27,0.00,,,0.00,Wunderground v.1.15,2013-02-18 20:07:00,
2013-02-18 15:12:00,33.0,1.8,30.07,WNW,287,5.0,15.0,26,0.00,,,0.00,Wunderground v.1.15,2013-02-18 20:12:00,
2013-02-18 15:17:00,33.1,3.5,30.07,West,281,5.0,15.0,28,0.00,,,0.00,Wunderground v.1.15,2013-02-18 20:17:00,
2013-02-18 15:23:00,33.3,2.0,30.07,WNW,284,5.0,15.0,26,0.00,,,0.00,Wunderground v.1.15,2013-02-18 20:23:00,
2013-02-18 15:28:00,33.2,3.6,30.07,WSW,240,5.0,15.0,28,0.00,,,0.00,Wunderground v.1.15,2013-02-18 20:28:00,
2013-02-18 15:33:00,33.2,2.0,30.07,WNW,297,6.0,15.0,26,0.00,,,0.00,Wunderground v.1.15,2013-02-18 20:33:00,
2013-02-18 15:39:00,33.3,2.9,30.07,WSW,250,5.0,15.0,27,0.00,,,0.00,Wunderground v.1.15,2013-02-18 20:39:00,
2013-02-18 15:44:00,33.2,2.8,30.07,SW,218,5.0,15.0,27,0.00,,,0.00,Wunderground v.1.15,2013-02-18 20:44:00,
2013-02-18 15:50:00,33.1,2.7,30.07,West,277,5.0,15.0,27,0.00,,,0.00,Wunderground v.1.15,2013-02-18 20:50:00,
2013-02-18 15:56:00,33.3,2.0,30.08,WNW,293,4.0,15.0,26,0.00,,,0.00,Wunderground v.1.15,2013-02-18 20:56:00,
2013-02-18 16:02:00,33.1,1.9,30.08,SW,232,4.0,15.0,26,0.00,,,0.00,Wunderground v.1.15,2013-02-18 21:02:00,
2013-02-18 16:07:00,33.1,1.0,30.08,NNE,17,5.0,15.0,25,0.00,,,0.00,Wunderground v.1.15,2013-02-18 21:07:00,
2013-02-18 16:12:00,33.0,1.8,30.08,NW,322,4.0,15.0,26,0.00,,,0.00,Wunderground v.1.15,2013-02-18 21:12:00,
2013-02-18 16:17:00,33.2,2.0,30.08,South,186,3.0,15.0,26,0.00,,,0.00,Wunderground v.1.15,2013-02-18 21:17:00,
2013-02-18 16:23:00,33.1,1.9,30.09,NNE,15,2.0,15.0,26,0.00,,,0.00,Wunderground v.1.15,2013-02-18 21:23:00,
2013-02-18 16:29:00,32.7,1.5,30.09,SW,236,4.0,15.0,26,0.00,,,0.00,Wunderground v.1.15,2013-02-18 21:29:00,
2013-02-18 16:35:00,32.5,1.4,30.09,WSW,245,4.0,15.0,26,0.00,,,0.00,Wunderground v.1.15,2013-02-18 21:35:00,
2013-02-18 16:40:00,32.1,1.8,30.09,WSW,249,4.0,4.0,27,0.00,,,0.00,Wunderground v.1.15,2013-02-18 21:40:00,
2013-02-18 16:46:00,31.7,2.3,30.10,WNW,287,3.0,15.0,28,0.00,,,0.00,Wunderground v.1.15,2013-02-18 21:46:00,
2013-02-18 16:51:00,31.4,1.2,30.10,WNW,284,3.0,15.0,27,0.00,,,0.00,Wunderground v.1.15,2013-02-18 21:51:00,
2013-02-18 16:56:00,31.3,1.1,30.11,West,263,3.0,15.0,27,0.00,,,0.00,Wunderground v.1.15,2013-02-18 21:56:00,
2013-02-18 17:01:00,31.1,1.0,30.11,WSW,248,2.0,15.0,27,0.00,,,0.00,Wunderground v.1.15,2013-02-18 22:01:00,
2013-02-18 17:07:00,30.6,2.1,30.11,NNW,329,2.0,15.0,29,0.00,,,0.00,Wunderground v.1.15,2013-02-18 22:07:00,
2013-02-18 17:12:00,30.3,1.8,30.11,WSW,248,2.0,15.0,29,0.00,,,0.00,Wunderground v.1.15,2013-02-18 22:12:00,
2013-02-18 17:17:00,30.0,0.8,30.11,WSW,239,3.0,15.0,28,0.00,,,0.00,Wunderground v.1.15,2013-02-18 22:17:00,
2013-02-18 17:23:00,29.9,2.2,30.11,West,271,4.0,15.0,30,0.00,,,0.00,Wunderground v.1.15,2013-02-18 22:23:00,
2013-02-18 17:29:00,29.6,2.6,30.11,WSW,248,3.0,15.0,31,0.00,,,0.00,Wunderground v.1.15,2013-02-18 22:29:00,
2013-02-18 17:34:00,29.4,1.7,30.12,West,276,2.0,15.0,30,0.00,,,0.00,Wunderground v.1.15,2013-02-18 22:34:00,
2013-02-18 17:39:00,29.3,1.6,30.12,WSW,250,3.0,15.0,30,0.00,,,0.00,Wunderground v.1.15,2013-02-18 22:39:00,
2013-02-18 17:54:00,28.6,1.7,30.12,WSW,255,1.0,2.0,31,0.00,,,0.00,Wunderground v.1.15,2013-02-18 22:54:00,
2013-02-18 17:59:00,28.5,3.0,30.12,WSW,242,1.0,2.0,33,0.00,,,0.00,Wunderground v.1.15,2013-02-18 22:59:00,
2013-02-18 18:04:00,28.4,2.9,30.13,WSW,248,2.0,4.0,33,0.00,,,0.00,Wunderground v.1.15,2013-02-18 23:04:00,
2013-02-18 18:09:00,28.4,2.9,30.13,WNW,285,2.0,4.0,33,0.00,,,0.00,Wunderground v.1.15,2013-02-18 23:09:00,
2013-02-18 18:15:00,28.5,3.0,30.13,WSW,238,3.0,4.0,33,0.00,,,0.00,Wunderground v.1.15,2013-02-18 23:15:00,
2013-02-18 18:20:00,28.5,2.3,30.13,WSW,256,3.0,3.0,32,0.00,,,0.00,Wunderground v.1.15,2013-02-18 23:20:00,
2013-02-18 18:25:00,28.6,2.4,30.14,WNW,283,3.0,5.0,32,0.00,,,0.00,Wunderground v.1.15,2013-02-18 23:25:00,
2013-02-18 18:31:00,28.6,2.4,30.14,West,266,3.0,3.0,32,0.00,,,0.00,Wunderground v.1.15,2013-02-18 23:31:00,
2013-02-18 18:36:00,28.5,2.3,30.14,WSW,243,2.0,4.0,32,0.00,,,0.00,Wunderground v.1.15,2013-02-18 23:36:00,
2013-02-18 18:41:00,28.3,2.8,30.14,WNW,284,3.0,7.0,33,0.00,,,0.00,Wunderground v.1.15,2013-02-18 23:41:00,
2013-02-18 18:46:00,28.4,2.9,30.14,SW,229,3.0,7.0,33,0.00,,,0.00,Wunderground v.1.15,2013-02-18 23:46:00,
2013-02-18 18:51:00,28.3,2.8,30.14,West,270,3.0,3.0,33,0.00,,,0.00,Wunderground v.1.15,2013-02-18 23:51:00,
2013-02-18 18:57:00,28.2,3.4,30.14,WSW,252,3.0,8.0,34,0.00,,,0.00,Wunderground v.1.15,2013-02-18 23:57:00,
2013-02-18 19:03:00,28.1,3.3,30.14,West,265,2.0,3.0,34,0.00,,,0.00,Wunderground v.1.15,2013-02-19 00:03:00,
2013-02-18 19:09:00,28.0,3.2,30.15,West,269,2.0,3.0,34,0.00,,,0.00,Wunderground v.1.15,2013-02-19 00:09:00,
2013-02-18 19:14:00,27.9,3.7,30.15,West,277,2.0,3.0,35,0.00,,,0.00,Wunderground v.1.15,2013-02-19 00:14:00,
2013-02-18 19:20:00,27.8,3.6,30.15,NW,316,2.0,4.0,35,0.00,,,0.00,Wunderground v.1.15,2013-02-19 00:20:00,
2013-02-18 19:26:00,27.8,3.6,30.15,West,267,2.0,5.0,35,0.00,,,0.00,Wunderground v.1.15,2013-02-19 00:26:00,
2013-02-18 19:31:00,27.8,3.6,30.15,West,266,2.0,3.0,35,0.00,,,0.00,Wunderground v.1.15,2013-02-19 00:31:00,
2013-02-18 19:36:00,27.7,3.6,30.15,West,263,2.0,5.0,35,0.00,,,0.00,Wunderground v.1.15,2013-02-19 00:36:00,
2013-02-18 19:42:00,27.8,3.6,30.15,WSW,240,3.0,6.0,35,0.00,,,0.00,Wunderground v.1.15,2013-02-19 00:42:00,
2013-02-18 19:47:00,27.9,3.7,30.15,West,274,3.0,6.0,35,0.00,,,0.00,Wunderground v.1.15,2013-02-19 00:47:00,
2013-02-18 19:53:00,27.7,3.6,30.16,WSW,245,2.0,3.0,35,0.00,,,0.00,Wunderground v.1.15,2013-02-19 00:53:00,
2013-02-18 19:59:00,27.6,4.1,30.16,West,274,2.0,3.0,36,0.00,,,0.00,Wunderground v.1.15,2013-02-19 00:59:00,
2013-02-18 20:05:00,27.5,4.0,30.16,West,276,2.0,3.0,36,0.00,,,0.00,Wunderground v.1.15,2013-02-19 01:05:00,
2013-02-18 20:11:00,27.4,3.9,30.16,WSW,243,2.0,3.0,36,0.00,,,0.00,Wunderground v.1.15,2013-02-19 01:11:00,
2013-02-18 20:16:00,27.1,3.6,30.16,SW,233,1.0,3.0,36,0.00,,,0.00,Wunderground v.1.15,2013-02-19 01:16:00,
2013-02-18 20:22:00,26.8,4.0,30.16,West,264,0.0,3.0,37,0.00,,,0.00,Wunderground v.1.15,2013-02-19 01:22:00,
2013-02-18 20:27:00,26.5,4.3,30.17,West,276,0.0,3.0,38,0.00,,,0.00,Wunderground v.1.15,2013-02-19 01:27:00,
2013-02-18 20:32:00,26.2,4.0,30.17,WSW,248,0.0,3.0,38,0.00,,,0.00,Wunderground v.1.15,2013-02-19 01:32:00,
2013-02-18 20:37:00,25.7,4.1,30.17,WSW,242,0.0,3.0,39,0.00,,,0.00,Wunderground v.1.15,2013-02-19 01:37:00,
2013-02-18 20:43:00,25.5,4.5,30.17,WSW,243,1.0,3.0,40,0.00,,,0.00,Wunderground v.1.15,2013-02-19 01:43:00,
2013-02-18 20:48:00,25.3,4.3,30.17,SW,219,0.0,3.0,40,0.00,,,0.00,Wunderground v.1.15,2013-02-19 01:48:00,
2013-02-18 20:54:00,24.7,4.3,30.17,SW,219,0.0,3.0,41,0.00,,,0.00,Wunderground v.1.15,2013-02-19 01:54:00,
2013-02-18 21:00:00,23.9,7.0,30.17,SW,219,0.0,3.0,48,0.00,,,0.00,Wunderground v.1.15,2013-02-19 02:00:00,
2013-02-18 21:05:00,23.3,8.7,30.18,SW,219,0.0,3.0,53,0.00,,,0.00,Wunderground v.1.15,2013-02-19 02:05:00,
2013-02-18 21:11:00,22.4,8.2,30.17,SW,219,0.0,3.0,54,0.00,,,0.00,Wunderground v.1.15,2013-02-19 02:11:00,
2013-02-18 21:17:00,21.9,9.7,30.18,SW,219,0.0,3.0,59,0.00,,,0.00,Wunderground v.1.15,2013-02-19 02:17:00,
2013-02-18 21:22:00,21.4,9.7,30.17,SW,219,0.0,3.0,60,0.00,,,0.00,Wunderground v.1.15,2013-02-19 02:22:00,
2013-02-18 21:28:00,20.8,8.7,30.18,SW,219,0.0,3.0,59,0.00,,,0.00,Wunderground v.1.15,2013-02-19 02:28:00,
2013-02-18 21:33:00,20.7,7.5,30.18,SW,219,0.0,3.0,56,0.00,,,0.00,Wunderground v.1.15,2013-02-19 02:33:00,
2013-02-18 21:39:00,20.5,9.5,30.17,SW,219,0.0,3.0,62,0.00,,,0.00,Wunderground v.1.15,2013-02-19 02:39:00,
2013-02-18 21:44:00,20.3,10.4,30.17,SW,219,0.0,3.0,65,0.00,,,0.00,Wunderground v.1.15,2013-02-19 02:44:00,
2013-02-18 21:50:00,19.6,9.0,30.18,SW,219,0.0,3.0,63,0.00,,,0.00,Wunderground v.1.15,2013-02-19 02:50:00,
2013-02-18 21:56:00,19.1,8.2,30.19,SW,219,0.0,3.0,62,0.00,,,0.00,Wunderground v.1.15,2013-02-19 02:56:00,
2013-02-18 22:03:00,18.9,8.0,30.19,SW,219,0.0,3.0,62,0.00,,,0.00,Wunderground v.1.15,2013-02-19 03:03:00,
2013-02-18 22:08:00,19.0,8.1,30.19,SW,219,0.0,3.0,62,0.00,,,0.00,Wunderground v.1.15,2013-02-19 03:08:00,
2013-02-18 22:15:00,19.3,11.1,30.19,SW,219,0.0,3.0,70,0.00,,,0.00,Wunderground v.1.15,2013-02-19 03:15:00,
2013-02-18 22:20:00,19.2,11.3,30.19,SW,219,0.0,3.0,71,0.00,,,0.00,Wunderground v.1.15,2013-02-19 03:20:00,
2013-02-18 22:26:00,19.2,11.3,30.19,SW,219,0.0,3.0,71,0.00,,,0.00,Wunderground v.1.15,2013-02-19 03:26:00,
2013-02-18 22:31:00,18.9,10.7,30.19,SW,219,0.0,3.0,70,0.00,,,0.00,Wunderground v.1.15,2013-02-19 03:31:00,
2013-02-18 22:37:00,18.8,10.3,30.19,SW,219,0.0,3.0,69,0.00,,,0.00,Wunderground v.1.15,2013-02-19 03:37:00,
2013-02-18 22:43:00,18.8,10.6,30.19,SW,219,0.0,3.0,70,0.00,,,0.00,Wunderground v.1.15,2013-02-19 03:43:00,
2013-02-18 22:49:00,18.8,10.9,30.19,SW,219,1.0,3.0,71,0.00,,,0.00,Wunderground v.1.15,2013-02-19 03:49:00,
2013-02-18 22:54:00,18.8,11.3,30.19,SW,219,1.0,3.0,72,0.00,,,0.00,Wunderground v.1.15,2013-02-19 03:54:00,
2013-02-18 22:59:00,18.7,11.5,30.19,SW,219,1.0,3.0,73,0.00,,,0.00,Wunderground v.1.15,2013-02-19 03:59:00,
2013-02-18 23:05:00,18.8,12.2,30.19,SW,219,1.0,3.0,75,0.00,,,0.00,Wunderground v.1.15,2013-02-19 04:05:00,
2013-02-18 23:10:00,19.0,12.4,30.19,SW,219,1.0,1.0,75,0.00,,,0.00,Wunderground v.1.15,2013-02-19 04:10:00,
2013-02-18 23:16:00,18.9,12.6,30.19,SW,219,1.0,1.0,76,0.00,,,0.00,Wunderground v.1.15,2013-02-19 04:16:00,
2013-02-18 23:21:00,18.8,11.3,30.19,SW,219,1.0,1.0,72,0.00,,,0.00,Wunderground v.1.15,2013-02-19 04:21:00,
2013-02-18 23:27:00,18.9,12.0,30.19,SW,219,1.0,2.0,74,0.00,,,0.00,Wunderground v.1.15,2013-02-19 04:27:00,
2013-02-18 23:32:00,18.8,11.6,30.19,SW,219,1.0,1.0,73,0.00,,,0.00,Wunderground v.1.15,2013-02-19 04:32:00,
2013-02-18 23:38:00,18.8,11.3,30.19,NNE,24,1.0,2.0,72,0.00,,,0.00,Wunderground v.1.15,2013-02-19 04:38:00,
2013-02-18 23:43:00,18.7,10.9,30.19,NNE,24,1.0,1.0,71,0.00,,,0.00,Wunderground v.1.15,2013-02-19 04:43:00,
2013-02-18 23:49:00,18.7,11.2,30.19,NNE,25,0.0,1.0,72,0.00,,,0.00,Wunderground v.1.15,2013-02-19 04:49:00,
2013-02-18 23:55:00,18.7,11.8,30.19,NNE,27,1.0,2.0,74,0.00,,,0.00,Wunderground v.1.15,2013-02-19 04:55:00,